Home   Weather   Tegucigalpa   Past weeks

Flag for Honduras Past Weather in Tegucigalpa, Honduras — Yesterday and Last 2 Weeks

Now
77 °F

Scattered clouds.


Feels Like: 79 °F
Forecast: 66 / 83 °F
Wind: No wind

Location: Tegucigalpa Airport

Current Time: Aug 31, 2016 at 10:15:36 AM

Latest Report: Aug 31, 2016 at 9:00 AM


Visibility: N/A

Pressure: 30.04 "Hg (26.62 "Hg at 1054m altitude)

Humidity: 74%

Dew Point: 68 °F

Location of TegucigalpaLocation

Past Weather in Tegucigalpa — Graph

°F

Tegucigalpa Temperature Yesterday

Maximum temperature yesterday: 86 °F (at 12:00 PM)
Minimum temperature yesterday: 66 °F (at 3:00 AM)
Average temperature yesterday: 73 °F

High & Low Weather Summary for the Past Weeks

 TemperatureHumidityPressure
High90 °F (Aug 27, 2:00 PM)100% (Aug 17, 8:00 AM)30.18 "Hg (Aug 17, 8:00 AM)
Low64 °F (Aug 18, 4:00 AM)42% (Aug 23, 1:00 PM)29.92 "Hg (Aug 17, 1:00 AM)
Average74 °F79%30.07 "Hg
* Reported Aug 16 10:00 AM — Aug 31 9:00 AM, Tegucigalpa, Weather by CustomWeather, © 2016

Note: Actual official high and low records may vary slightly from our data, if they occured in-between our weather recording intervals... More about our weather records

Advertising

Tegucigalpa Weather History for the Previous 24 Hours

Scroll right to see more
 ConditionsComfort  
Time TempWeatherWind HumidityBarometerVisibility
9:00 AM
Wed, Aug 31
77 °FScattered clouds.No wind74%30.04 "HgN/A
8:00 AM73 °FBroken clouds.No wind94%30.04 "Hg4 mi
7:00 AM68 °FPartly sunny.No wind100%30.04 "Hg4 mi
6:00 AM66 °FPartly sunny.No wind100%30.04 "Hg5 mi
5:00 AM66 °FPassing clouds.No wind100%30.04 "HgN/A
4:00 AM66 °FPassing clouds.No wind100%30.04 "HgN/A
3:00 AM66 °FPassing clouds.No wind100%30.04 "HgN/A
1:00 AM68 °FPassing clouds.No wind100%30.07 "HgN/A
12:00 AM66 °FPassing clouds.No wind100%30.07 "HgN/A
11:00 PM
Tue, Aug 30
68 °FPassing clouds.3 mph100%30.09 "HgN/A
10:00 PM66 °FPassing clouds.No wind100%30.09 "HgN/A
9:00 PM68 °FPassing clouds.5 mph100%30.07 "HgN/A
8:00 PM68 °FScattered showers. Partly cloudy.9 mph100%30.04 "Hg5 mi
7:00 PM72 °FThunderstorms. Passing clouds.5 mph94%30.04 "Hg3 mi
6:00 PM77 °FScattered showers. Scattered clouds.No wind74%29.98 "Hg3 mi
5:00 PM79 °FBroken clouds.7 mph70%29.95 "HgN/A
4:00 PM82 °FScattered clouds.12 mph66%29.95 "HgN/A
3:00 PM77 °FScattered clouds.9 mph79%29.95 "HgN/A
2:00 PM86 °FScattered clouds.7 mph55%29.98 "HgN/A
1:00 PM82 °FScattered clouds.9 mph62%30.01 "HgN/A
12:00 PM86 °FScattered clouds.8 mph55%30.01 "HgN/A
11:00 AM82 °FBroken clouds.6 mph58%30.04 "HgN/A
Weather by CustomWeather, © 2016

See weather overviewHow to use our weather pages